Regional Weather Roundup
Issued by NWS Cleveland, OH

Home | Current Version | Previous Version | Graphics & Text | Print | Product List | Glossary On
Versions: 1 2 3 4 5 6 7 8 9 10 11 12 13 14 15 16 17 18 19 20 21 22 23 24 25 26 27 28 29 30 31 32 33 34 35 36 37 38 39 40 41 42 43 44 45 46 47 48 49 50
000
ASUS41 KCLE 280202
RWRCLE
OHIO REGIONAL WEATHER ROUNDUP
NATIONAL WEATHER SERVICE CLEVELAND, OH
1000 PM EDT SUN JUL 27 2014

NOTE: "FAIR" INDICATES FEW OR NO CLOUDS BELOW 12,000 FEET WITH NO
SIGNIFICANT WEATHER AND/OR OBSTRUCTIONS TO VISIBILITY.

OHZ001>008-015>018-024>027-034-035-043-044-280300-
   NORTHWEST OHIO

CITY           SKY/WX    TMP DP  RH WIND       PRES   REMARKS
DEFIANCE       PTCLDY    67  61  81 VRB5      29.74R
FINDLAY        CLOUDY    70  62  76 W7        29.71R
TOLEDO EXPRESS MOCLDY    65  56  72 NE8       29.72R
TOLEDO EXEC    CLOUDY    67  57  70 NE5       29.72R
LIMA           LGT RAIN  68  65  90 NW9       29.74R
$$

OHZ009>014-019>023-028>033-038-089-280300-
   NORTHEAST OHIO

CITY           SKY/WX    TMP DP  RH WIND       PRES   REMARKS
CLE-HOPKINS    MOCLDY    65  63  93 N9        29.69F
CLE-LAKEFRONT  CLOUDY    68  62  81 N17G24    29.67R
CUY CO. ARPT   MOCLDY    66  64  94 NW14      29.68R
LORAIN-ELYRIA  MOCLDY    69  63  81 N8        29.69R
ASHTABULA      TSTM      63  60  90 VRB5      29.67R FOG
AKRON-CANTON   LGT RAIN  64  61  88 NW12G24   29.69R
WOOSTER        CLOUDY    68  60  75 N17G24    29.70R
MANSFIELD      CLOUDY    68  63  84 N16G26    29.70R
YOUNGSTOWN     TSTM      64  60  87 W12       29.67R FOG
$$

OHZ042-051>053-060>062-070>072-077>081-280300-
  SOUTHWEST OHIO

CITY           SKY/WX    TMP DP  RH WIND       PRES   REMARKS
CINC-COVINGTON PTCLDY    70  67  90 W8        29.79R
CINC-LUNKEN    CLEAR     74  67  78 W9        29.78R
HAMILTON       PTCLDY    75  62  64 W5        29.78R
DAYTON         PTCLDY    74  61  63 W18G24    29.76R
WRIGHT-PAT AFB CLEAR     73  65  76 W14       29.75R
DAYTON GENERAL CLEAR     74  63  68 W13G18    29.76R
WILMINGTON     MOCLDY    71  66  84 W7        29.76R
$$

OHZ036-037-039>041-045>050-054>059-063>069-073>076-082>088-280300-
  CENTRAL AND SOUTHEAST OHIO

CITY           SKY/WX    TMP DP  RH WIND       PRES   REMARKS
COLUMBUS       PTCLDY    68  63  84 CALM      29.70R
OSU AIRPORT    CLEAR     67  63  87 SW8       29.71R
BOLTON FIELD   PTCLDY    65  64  99 SW7       29.73R
RICKENBACK AFB PTCLDY    68  62  81 SW6       29.72R
NEWARK         MOCLDY    69  65  86 W9        29.69R
MARION         MOCLDY    68  63  84 NW6       29.71R
LANCASTER      PTCLDY    68  63  84 SW3       29.72R
ZANESVILLE     MOCLDY    70  67  90 SW6       29.69R
NEW PHILLY     CLOUDY    69  67  93 CALM      29.68R
$$



USA.gov is the U.S. government's official web portal to all federal, state and local government web resources and services.